TimeCDT,TemperatureF,Dew PointF,Humidity,Sea Level PressureIn,VisibilityMPH,Wind Direction,Wind SpeedMPH,Gust SpeedMPH,PrecipitationIn,Events,Conditions,WindDirDegrees,DateUTC
12:15 AM,37.4,37.4,100,29.92,10.0,NNW,6.9,-,N/A,,Clear,330,2012-10-14 05:15:00
12:35 AM,37.4,37.4,100,29.92,10.0,NW,6.9,-,N/A,,Clear,320,2012-10-14 05:35:00
12:55 AM,37.4,37.4,100,29.92,10.0,NW,9.2,-,N/A,,Clear,320,2012-10-14 05:55:00
1:15 AM,37.4,37.4,100,29.92,10.0,NNW,5.8,-,N/A,,Clear,340,2012-10-14 06:15:00
1:35 AM,35.6,35.6,100,29.91,10.0,NW,6.9,-,N/A,,Clear,320,2012-10-14 06:35:00
1:55 AM,35.6,35.6,100,29.91,10.0,WNW,4.6,-,N/A,,Partly Cloudy,300,2012-10-14 06:55:00
2:15 AM,33.8,33.8,100,29.92,10.0,NW,4.6,-,N/A,,Clear,310,2012-10-14 07:15:00
2:35 AM,33.8,33.8,100,29.92,10.0,NW,3.5,-,N/A,,Partly Cloudy,310,2012-10-14 07:35:00
2:55 AM,32.0,32.0,100,29.93,10.0,NW,4.6,-,N/A,,Scattered Clouds,310,2012-10-14 07:55:00
3:15 AM,32.0,32.0,100,29.93,10.0,NW,4.6,-,N/A,,Partly Cloudy,310,2012-10-14 08:15:00
3:35 AM,32.0,32.0,100,29.93,10.0,NW,6.9,-,N/A,,Mostly Cloudy,320,2012-10-14 08:35:00
3:55 AM,35.6,35.6,100,29.94,10.0,NW,4.6,-,N/A,,Overcast,310,2012-10-14 08:55:00
4:15 AM,37.4,37.4,100,29.94,10.0,NNW,8.1,-,N/A,,Overcast,340,2012-10-14 09:15:00
4:35 AM,37.4,37.4,100,29.94,10.0,NNW,6.9,-,N/A,,Overcast,340,2012-10-14 09:35:00
4:55 AM,37.4,37.4,100,29.95,10.0,NNW,5.8,-,N/A,,Overcast,340,2012-10-14 09:55:00
5:15 AM,37.4,37.4,100,29.95,10.0,NNW,5.8,-,N/A,,Overcast,330,2012-10-14 10:15:00
5:35 AM,37.4,37.4,100,29.95,10.0,NNW,6.9,-,N/A,,Overcast,330,2012-10-14 10:35:00
5:55 AM,37.4,37.4,100,29.95,10.0,NNW,6.9,-,N/A,,Overcast,340,2012-10-14 10:55:00
6:15 AM,37.4,37.4,100,29.95,10.0,NNW,6.9,-,N/A,,Overcast,340,2012-10-14 11:15:00
6:35 AM,37.4,37.4,100,29.95,10.0,NNW,8.1,-,N/A,,Overcast,330,2012-10-14 11:35:00
6:55 AM,37.4,37.4,100,29.95,10.0,North,6.9,-,N/A,,Overcast,350,2012-10-14 11:55:00
7:15 AM,37.4,37.4,100,29.96,10.0,NNW,12.7,17.3,N/A,,Overcast,340,2012-10-14 12:15:00
7:35 AM,37.4,37.4,100,29.96,10.0,North,11.5,-,N/A,,Overcast,350,2012-10-14 12:35:00
7:55 AM,37.4,37.4,100,29.96,10.0,North,8.1,-,N/A,,Overcast,350,2012-10-14 12:55:00
8:15 AM,37.4,37.4,100,29.96,10.0,NNW,5.8,-,N/A,,Overcast,330,2012-10-14 13:15:00
8:35 AM,37.4,37.4,100,29.97,10.0,North,12.7,17.3,N/A,,Overcast,350,2012-10-14 13:35:00
8:55 AM,37.4,37.4,100,29.97,10.0,NNW,9.2,-,N/A,,Overcast,340,2012-10-14 13:55:00
9:15 AM,37.4,37.4,100,29.98,10.0,NNW,9.2,-,N/A,,Overcast,340,2012-10-14 14:15:00
9:35 AM,37.4,37.4,100,29.97,10.0,NNW,6.9,-,N/A,,Overcast,340,2012-10-14 14:35:00
9:55 AM,39.2,37.4,93,29.97,10.0,North,5.8,-,N/A,,Overcast,350,2012-10-14 14:55:00
10:15 AM,39.2,37.4,93,29.96,10.0,North,6.9,-,N/A,,Overcast,350,2012-10-14 15:15:00
10:35 AM,39.2,37.4,93,29.96,10.0,North,6.9,-,N/A,,Overcast,350,2012-10-14 15:35:00
10:55 AM,39.2,37.4,93,29.97,10.0,North,9.2,-,N/A,,Overcast,350,2012-10-14 15:55:00
11:15 AM,39.2,37.4,93,29.96,10.0,NNW,4.6,-,N/A,,Overcast,330,2012-10-14 16:15:00
11:35 AM,41.0,37.4,87,29.96,10.0,North,11.5,-,N/A,,Overcast,350,2012-10-14 16:35:00
11:55 AM,41.0,37.4,87,29.96,10.0,NNW,11.5,-,N/A,,Overcast,340,2012-10-14 16:55:00
12:15 PM,41.0,37.4,87,29.96,10.0,NNW,8.1,-,N/A,,Mostly Cloudy,340,2012-10-14 17:15:00
12:35 PM,44.6,37.4,76,29.96,10.0,NNW,8.1,-,N/A,,Overcast,330,2012-10-14 17:35:00
12:55 PM,44.6,37.4,76,29.95,10.0,NNW,9.2,-,N/A,,Mostly Cloudy,330,2012-10-14 17:55:00
1:15 PM,44.6,39.2,81,29.94,10.0,NNW,6.9,-,N/A,,Partly Cloudy,330,2012-10-14 18:15:00
1:35 PM,46.4,39.2,76,29.93,10.0,North,5.8,-,N/A,,Clear,10,2012-10-14 18:35:00
1:55 PM,48.2,39.2,71,29.92,10.0,NNE,5.8,-,N/A,,Clear,30,2012-10-14 18:55:00
2:15 PM,48.2,37.4,66,29.92,10.0,NNW,3.5,-,N/A,,Clear,340,2012-10-14 19:15:00
2:35 PM,48.2,37.4,66,29.92,10.0,NW,3.5,-,N/A,,Clear,320,2012-10-14 19:35:00
3:15 PM,51.8,37.4,58,29.91,10.0,North,5.8,-,N/A,,Clear,360,2012-10-14 20:15:00
3:35 PM,51.8,37.4,58,29.90,10.0,Calm,Calm,-,N/A,,Clear,0,2012-10-14 20:35:00
3:55 PM,53.6,37.4,54,29.89,10.0,Calm,Calm,-,N/A,,Clear,0,2012-10-14 20:55:00
4:15 PM,53.6,39.2,58,29.89,10.0,East,3.5,-,N/A,,Clear,90,2012-10-14 21:15:00
4:35 PM,53.6,37.4,54,29.89,10.0,Calm,Calm,-,N/A,,Clear,0,2012-10-14 21:35:00
4:55 PM,53.6,39.2,58,29.89,10.0,SE,3.5,-,N/A,,Clear,130,2012-10-14 21:55:00
5:15 PM,53.6,39.2,58,29.89,10.0,ESE,3.5,-,N/A,,Clear,110,2012-10-14 22:15:00
5:35 PM,53.6,39.2,58,29.89,10.0,ESE,4.6,-,N/A,,Clear,120,2012-10-14 22:35:00
5:55 PM,53.6,39.2,58,29.89,10.0,East,3.5,-,N/A,,Clear,100,2012-10-14 22:55:00
6:15 PM,51.8,37.4,58,29.89,10.0,East,4.6,-,N/A,,Clear,90,2012-10-14 23:15:00
6:35 PM,50.0,37.4,62,29.90,10.0,ENE,3.5,-,N/A,,Clear,70,2012-10-14 23:35:00
6:55 PM,46.4,37.4,71,29.91,10.0,ENE,3.5,-,N/A,,Mostly Cloudy,60,2012-10-14 23:55:00
7:15 PM,48.2,39.2,71,29.93,10.0,Calm,Calm,-,N/A,,Overcast,0,2012-10-15 00:15:00
7:35 PM,46.4,41.0,81,29.92,10.0,South,6.9,-,N/A,Rain,Light Rain,180,2012-10-15 00:35:00
7:55 PM,46.4,42.8,87,29.89,10.0,SSE,8.1,-,N/A,,Overcast,150,2012-10-15 00:55:00
8:15 PM,48.2,41.0,76,29.90,10.0,Calm,Calm,-,N/A,,Mostly Cloudy,0,2012-10-15 01:15:00
8:35 PM,46.4,41.0,81,29.89,10.0,ESE,4.6,-,N/A,,Mostly Cloudy,120,2012-10-15 01:35:00
8:55 PM,42.8,41.0,93,29.89,10.0,SE,3.5,-,N/A,,Partly Cloudy,130,2012-10-15 01:55:00
9:15 PM,42.8,41.0,93,29.89,10.0,SSW,3.5,-,N/A,,Clear,200,2012-10-15 02:15:00
9:35 PM,42.8,41.0,93,29.89,10.0,SSW,3.5,-,N/A,,Scattered Clouds,210,2012-10-15 02:35:00
9:55 PM,42.8,42.8,100,29.89,10.0,SW,4.6,-,N/A,,Scattered Clouds,230,2012-10-15 02:55:00
10:15 PM,42.8,42.8,100,29.88,10.0,Calm,Calm,-,N/A,,Mostly Cloudy,0,2012-10-15 03:15:00
10:35 PM,42.8,42.8,100,29.88,10.0,SSW,5.8,-,N/A,,Mostly Cloudy,210,2012-10-15 03:35:00
10:55 PM,44.6,42.8,93,29.87,10.0,SW,3.5,-,N/A,,Scattered Clouds,220,2012-10-15 03:55:00
11:15 PM,42.8,42.8,100,29.87,10.0,Calm,Calm,-,N/A,,Partly Cloudy,0,2012-10-15 04:15:00
11:35 PM,44.6,42.8,93,29.86,10.0,SW,4.6,-,N/A,,Partly Cloudy,220,2012-10-15 04:35:00
11:55 PM,44.6,41.0,87,29.86,10.0,SSW,9.2,-,N/A,,Clear,210,2012-10-15 04:55:00